Location: Casteau
(50.5142°N, 4.0161°E)
Time: 18:50:35
(UTC+00:00)

Tiros 1 - Pass Details

Date: 05 August 2021
Orbit: 630 x 663 km, 48.4° (Epoch: 28 September)

Event Time Altitude Azimuth Distance (km) Brightness Sun altitude
Rises 19:45:54 0° 273° (W) 2,984 11.8 -4.2°
Reaches altitude 10° 19:48:17 10° 271° (W) 2,067 10.8 -4.5°
Maximum altitude 19:52:59 62° 191° (S) 732 7.4 -5.1°
Drops below altitude 10° 19:57:38 10° 111° (ESE) 2,043 9.1 -5.7°
Enters shadow 19:58:27 - 110° (ESE) 2,356 9.4 -5.8°
Sets 19:59:58 0° 108° (ESE) 2,946 - -6.0°
